FENGYUN 1C DEB

Satellite information

Favourite Embed

Satellite Type and Status

DEBRISIN ORBIT

Key statistics

Satellite FENGYUN 1C DEB at a glance.

Uptime

9715

Days in orbit

Revolutions

≈ 14.5

Per day

Orbit

SSO

Sun Synchronous Orbit

Inclination

98.2

Latest

Satellite identification and parameters

Extended collection of information and parameters for FENGYUN 1C DEB.

Object identification

Identified? True

Debris? True

Object name: FENGYUN 1C DEB

International designator: 1999-025CYT

Object number (NORAD): 32350

Object ID (CCSDS): 32350

Country: PEOPLES REPUBLIC OF CHINA (PRC)

Current information (Y/N): Y

RCS size: SMALL

Orbital parameters

Period: 99.135 minutes

Inclination: 98.2296 deg

SMA: 7095.403 km

Apoapsis: 906.697 km

Periapsis: 527.84 km

RAAN: 31.6254 deg

Eccentricy: 0.02669734

Argument of periapsis: 298.1573 deg

Mean anomaly: 59.2885 deg

Mean motion: 14.52570236 rev/day

Mean motion (dot): 0.00006458 rev/day2

B* drag term: 0.00099504636 1/REarth

Two-line elements (TLE)

Creation date: Dec. 13, 2025, 4:32 a.m.

Reference frame: TEME

Reference center: EARTH

Epoch: Dec. 12, 2025, 9:09 p.m. UTC

TLE line 0: 0 FENGYUN 1C DEB

TLE line 1: 1 32350U 99025CYT 25346.88158071 .00006458 00000-0 99505-3 0 9990

TLE line 2: 2 32350 98.2296 31.6254 0266973 298.1573 59.2885 14.52570236975294

Live tracking on map

Real-time ground track for satellite FENGYUN 1C DEB.

In-orbit conjunctions

A list of the most updated potential collisions computed for object FENGYUN 1C DEB.

Target Orbit TCA Probability of collision Miss distance Type
SL-8 DEB LEO 2025-06-04 15:51:24 0.0002233497 95.0 (m) DEBRIS
IRIDIUM 33 DEB LEO 2024-11-10 18:08:58 0.000506014 236.0 (m) DEBRIS

Associated space launch

Chinese polar orbiting meteorological satellite

FENGYUN 1C DEB was lifted into orbit during the mission ‘Long March 4B | Feng Yun 1C’, on board a Long March 4B space rocket.

The launch took place on May 10, 1999, 1:33 a.m. from Launch Complex 7.

For more information about the launch, click the button.

Launch to space Long March 4B | Feng Yun 1C
Long March 4B | Feng Yun 1C

Agency: N/A

Status: Launch Successful

Launch date: May 10, 1999, 1:33 a.m. UTC

Rocket: Long March 4B

Launch pad: Launch Complex 7

Location: Taiyuan Satellite Launch Center, People's Republic of China

...

Latest news about this satellite

There are no fresh news available about this satellite. Check back as we update our databases every day.


Newsletter sign-up

Weekly statistics, charts and insights to help you stay on top of the space industry.